Location: Unspecified
(0.0000°N, 0.0000°E)
Time: 02:17:24
(UTC+02:00)

H-2A R/B - Visible Passes

Search period start: 31 March 2015 00:00
Search period end: 10 April 2015 00:00
Orbit: 258 x 33508 km, 28.4° (Epoch: 30 March)

Date Brightness Start Highest point End Pass type
(mag) Time Alt. Az. Time Alt. Az. Time Alt. Az.
31 Mar 3.4 06:12:51 10° WNW 14:30:56 32° SSE 14:33:30 10° E visible
01 Apr 7.2 00:49:08 10° NW 09:26:40 44° SSW 09:56:25 10° SE visible
01 Apr 5.7 20:13:11 10° NNW 20:19:37 18° NNE 05:02:26 10° ESE visible
03 Apr 6.5 01:56:45 10° NW 10:48:03 36° SSW 11:02:22 10° SE visible
03 Apr 6.3 21:17:13 10° NNW 21:30:17 30° NNE 06:16:11 10° SE visible
05 Apr 5.6 03:06:39 10° WNW 11:59:50 31° S 12:07:24 10° ESE visible
05 Apr 6.7 22:21:14 10° NW 22:44:24 45° NNE 07:25:26 10° SE visible
07 Apr 4.6 04:22:27 10° WNW 13:07:26 32° S 13:11:35 10° ESE visible
07 Apr 7.0 23:25:21 10° NW 00:08:13 63° NE 08:32:12 10° SE visible
09 Apr 2.8 06:04:52 10° W 14:12:29 50° SSE 14:14:54 10° E visible
